Theta_e
288 287 287 287 287 287 287 287 287 288 287 287 290 291 291 292 293 293 293 293 294 294 294 295 295 296 296
287 287 287 288 287 287 287 287 288 288 288 288 287 289 290 291 292 292 292 293 292 292 293 293 293 293 294
287 288 288 288 287 287 287 287 287 287 288 288 287 287 288 290 291 292 291 290 290 289 290 291 292 292 293
288 288 288 287 287 287 286 287 287 288 288 288 288 288 287 288 289 289 290 289 288 288 290 290 291 291 292
288 288 287 287 286 286 287 287 287 287 287 288 288 288 288 287 288 289 290 289 289 288 290 290 291 291 291
287 286 286 286 287 287 286 286 286 286 285 286 287 287 288 288 287 288 289 289 288 289 289 290 290 288 288
285 285 286 285 286 285 285 285 286 285 285 285 286 286 287 288 288 288 288 288 288 288 288 288 288 287 290
284 284 284 283 284 284 284 284 284 284 284 285 285 286 286 287 288 288 288 288 287 286 286 287 288 288 289
283 282 282 282 282 282 282 282 283 283 283 284 285 284 284 285 285 285 286 286 286 286 286 287 288 289 289
283 282 282 282 281 282 282 281 281 281 282 282 282 282 282 283 283 284 284 284 284 285 285 286 288 288 289
283 283 283 282 282 282 282 282 282 282 282 282 282 282 282 282 283 284 284 284 285 285 284 286 286 287 287
283 283 283 283 283 283 282 282 282 282 283 283 283 283 283 283 283 285 285 285 285 285 285 285 285 285 286
283 283 283 283 283 283 283 283 284 284 284 284 284 284 284 284 284 285 285 286 286 286 286 286 286 286 286
283 283 283 284 284 283 283 284 284 285 285 285 285 285 285 285 285 286 286 285 286 286 286 286 286 286 286
283 283 283 283 284 284 284 284 284 285 285 286 286 286 286 286 286 286 286 286 286 286 286 286 286 286 286
283 283 283 283 284 284 284 284 284 285 285 285 285 286 286 286 286 286 286 286 286 286 286 285 285 285 286
283 283 283 283 283 284 284 284 284 284 285 284 285 285 285 285 285 285 285 285 285 285 285 285 285 285 284
Wind_Speed
34 32 33 32 31 31 29 28 27 26 26 26 24 24 24 24 25 24 24 25 22 20 20 19 19 19 19
34 34 32 31 32 33 31 28 25 24 23 23 24 23 22 22 23 21 20 18 17 17 19 18 19 19 18
34 33 34 33 34 32 32 30 26 24 23 21 19 20 20 21 20 19 16 17 18 19 22 19 17 17 16
31 34 35 35 33 32 35 30 30 24 23 17 15 17 18 20 21 19 19 17 17 19 19 20 17 18 16
31 35 36 35 30 32 28 32 29 27 27 23 22 21 19 17 17 16 16 18 19 20 19 17 14 17 18
31 32 34 34 33 30 25 26 30 30 31 29 25 23 19 17 16 17 19 19 18 16 16 15 18 20 20
28 26 26 25 28 31 30 29 26 29 24 27 25 25 22 17 15 14 17 18 18 17 19 21 21 19 16
22 26 29 30 28 26 28 28 29 29 22 27 21 19 19 14 12 13 15 17 19 22 22 21 20 15 17
24 24 22 21 21 22 23 25 26 27 24 21 20 30 30 25 19 17 17 18 19 19 18 16 14 13 16
23 21 20 19 18 18 20 23 25 27 17 25 27 26 25 25 19 18 22 21 25 27 25 17 16 5 13
21 20 19 18 16 15 15 17 21 24 23 21 26 23 20 26 26 19 11 12 14 15 16 19 19 17 13
20 21 21 20 19 18 17 18 19 23 23 19 24 22 21 24 25 19 15 12 13 12 11 12 16 18 17
20 20 20 19 18 17 16 17 17 14 14 17 19 19 19 20 23 22 21 16 11 8 5 9 11 14 14
18 20 21 21 20 19 20 20 19 14 9 13 16 17 19 17 18 19 17 16 12 9 9 10 11 11 10
18 21 21 21 20 18 18 19 18 19 17 12 15 14 14 14 14 12 14 12 9 8 7 8 9 9 10
19 20 21 21 21 19 17 16 18 17 17 17 18 15 14 12 10 11 14 10 8 8 9 8 7 6 3
19 20 20 20 19 19 18 18 18 16 15 16 16 17 16 15 11 11 14 12 10 8 7 9 12 7 6
Wind_Direction
310 314 316 319 322 322 321 319 314 310 307 302 301 293 289 285 287 285 277 273 278 279 281 282 287 291 299
313 316 319 322 323 322 323 317 314 312 308 305 304 295 285 284 283 283 279 271 280 285 288 294 293 296 292
313 317 319 322 323 322 322 321 316 314 313 314 306 303 288 288 293 282 279 294 295 292 285 293 296 296 299
314 315 318 320 320 320 320 322 327 321 317 318 311 307 302 289 284 284 287 285 292 293 287 290 287 293 295
314 314 316 319 323 319 319 322 326 323 328 319 311 310 306 293 282 278 278 276 289 290 284 275 275 276 283
309 311 310 313 322 313 318 323 320 320 316 316 324 319 317 293 276 271 271 283 290 288 289 278 279 286 283
309 311 314 313 310 317 317 316 311 315 325 314 319 315 324 300 271 266 275 284 282 284 277 282 285 283 277
311 310 309 310 307 303 307 305 304 311 316 313 321 315 317 326 308 285 281 282 281 284 287 288 283 273 269
320 319 320 315 316 312 311 313 314 311 315 306 306 313 311 311 306 296 291 287 282 280 286 288 272 252 248
326 327 325 323 317 307 309 310 312 316 314 309 308 315 319 317 314 293 294 288 279 276 273 268 255 247 240
330 333 335 336 333 325 319 314 312 306 321 316 309 313 308 310 316 327 324 310 292 288 276 260 263 267 264
334 341 341 340 339 334 328 319 312 310 317 309 301 310 309 307 310 330 328 318 302 287 272 271 259 260 260
342 342 342 341 341 334 330 323 325 326 315 310 307 309 302 300 305 316 321 329 315 291 269 279 270 258 257
346 347 347 347 348 343 337 338 340 346 345 328 316 310 314 314 309 314 321 317 322 302 284 276 269 260 255
345 342 342 343 345 342 340 341 341 342 344 347 351 326 319 324 324 335 335 338 333 336 325 305 295 279 262
339 338 338 340 339 343 340 339 339 340 341 344 347 349 343 344 339 336 336 340 319 326 329 319 327 313 282
340 341 338 338 339 340 340 339 337 337 342 342 343 344 345 348 341 325 336 337 331 326 312 307 308 309 273